Flag for Canada Weather past 2 weeks in Whitehorse, Yukon, Canada

36 °F

Passing clouds.

Feels Like: 25 °F
Forecast: 27 / 31 °F
Wind: 18 mph from Southeast

Location: Whitehorse

Current Time: Nov 27, 2015 at 5:26:54 PM

Latest Report: Nov 27, 2015 at 5:00 PM

Visibility: 40 mi

Pressure: 29.99 "Hg (27.70 "Hg at 640m altitude)

Humidity: 56%

Dew point: 21 °F

Location of WhitehorseLocation

Historic Weather in Whitehorse — Graph


Whitehorse temperature yesterday

Maximum temperature yesterday: 37 °F (at 2:00 PM)
Minimum temperature yesterday: 27 °F (at 5:00 AM)
Average temperature yesterday: 34 °F

Past Weeks' High & Low Weather Summary

High45 °F (Nov 21, 11:00 AM)92% (Nov 15, 7:00 PM)30.50 "Hg (Nov 15, 7:00 PM)
Low-15 °F (Nov 19, 9:00 AM)30% (Nov 21, 6:00 PM)28.79 "Hg (Nov 12, 6:00 PM)
Average15 °F73%29.87 "Hg
* Reported Nov 12 4:00 PM — Nov 27 4:00 PM, Whitehorse, Weather by CustomWeather, © 2015

Note: Actual official high and low records may vary slightly from our data, if they occured in-between our weather recording intervals... More about our weather records


Whitehorse weather history for previous 24 hours

Time TempWeatherWind HumidityBarometerVisibility
4:00 PM
Fri, Nov 27
34 °FCloudy.16 mph60%30.00 "Hg40 mi
3:00 PM34 °FOvercast.17 mph56%30.02 "Hg40 mi
2:00 PM34 °FPartly sunny.24 mph60%30.03 "Hg40 mi
1:00 PM32 °FPartly sunny.18 mph60%30.07 "Hg40 mi
12:00 PM32 °FPartly sunny.20 mph60%30.07 "Hg40 mi
11:00 AM30 °FBroken clouds.21 mph64%30.08 "Hg40 mi
10:00 AM32 °FScattered clouds.17 mph60%30.10 "Hg40 mi
9:00 AM32 °FPassing clouds.24 mph60%30.10 "Hg40 mi
8:00 AM30 °FClear.17 mph64%30.11 "Hg15 mi
7:00 AM30 °FLow level haze.14 mph69%30.13 "Hg15 mi
6:00 AM34 °FLow level haze.15 mph60%30.14 "Hg15 mi
5:00 AM34 °FLow level haze.16 mph60%30.15 "Hg15 mi
4:00 AM34 °FPassing clouds.26 mph65%30.13 "Hg15 mi
3:00 AM36 °FPassing clouds.23 mph56%30.13 "Hg15 mi
2:00 AM36 °FOvercast.29 mph56%30.10 "Hg15 mi
1:47 AM36 °FOvercast.21 mph56%30.11 "Hg15 mi
1:00 AM39 °FMostly cloudy.13 mph48%30.10 "Hg15 mi
12:00 AM37 °FMostly cloudy.15 mph56%30.08 "Hg15 mi
11:00 PM
Thu, Nov 26
37 °FPassing clouds.12 mph52%30.06 "Hg15 mi
10:00 PM37 °FPassing clouds.18 mph52%30.06 "Hg15 mi
9:00 PM37 °FPassing clouds.23 mph52%30.03 "Hg15 mi
8:00 PM37 °FPassing clouds.21 mph56%30.02 "Hg15 mi
7:00 PM34 °FPassing clouds.18 mph65%30.02 "Hg15 mi
6:00 PM36 °FPassing clouds.23 mph60%29.99 "Hg15 mi
5:00 PM36 °FPassing clouds.25 mph56%29.99 "Hg40 mi
Weather by CustomWeather, © 2015

See weather overviewHow to use our weather pages